Location: Krakow
(50.0212°N, 19.9423°E)
Time: 13:43:46
(UTC+01:00)

ARIANE 6 FM1 Upper Stage - Visible Passes

Search period start: 13 December 2025 00:00
Search period end: 23 December 2025 00:00
Orbit: 522 x 611 km, 62.0° (Epoch: 12 December)

Date Brightness Start Highest point End Pass type
(mag) Time Alt. Az. Time Alt. Az. Time Alt. Az.
13 Dec 5.5 05:57:58 10° S 06:01:01 21° ESE 06:04:02 10° ENE visible
14 Dec 4.7 05:57:47 10° S 06:01:17 29° SE 06:04:46 10° ENE visible
15 Dec 4.0 05:57:48 10° SSW 06:01:36 41° SE 06:05:22 10° ENE visible
16 Dec 3.2 05:57:58 10° SSW 06:01:56 59° SE 06:05:51 10° NE visible
17 Dec 5.7 04:22:11 10° SE 04:23:53 12° ESE 04:25:35 10° E visible
17 Dec 2.6 05:58:16 10° SW 06:02:17 83° SE 06:06:17 10° NE visible
18 Dec 5.2 04:22:02 13° SSE 04:24:05 18° ESE 04:26:47 10° ENE visible
18 Dec 2.4 05:58:40 10° SW 06:02:41 72° NW 06:06:40 10° NE visible
19 Dec 4.6 04:23:56 24° SE 04:24:18 25° ESE 04:27:35 10° ENE visible
19 Dec 2.7 06:00:02 16° WSW 06:03:06 53° NW 06:07:00 10° NE visible
20 Dec 4.3 04:25:21 31° E 04:25:21 31° E 04:28:11 10° ENE visible
20 Dec 3.0 06:01:26 22° W 06:03:32 40° NW 06:07:18 10° NE visible
21 Dec 4.4 04:26:26 30° ENE 04:26:26 30° ENE 04:28:40 10° NE visible
21 Dec 3.3 06:02:31 24° WNW 06:04:00 32° NNW 06:07:36 10° NE visible
22 Dec 4.6 04:27:19 25° NE 04:27:19 25° NE 04:29:04 10° NE visible
22 Dec 3.7 06:03:23 23° NW 06:04:29 26° NNW 06:07:53 10° NNE visible
